QPF
0.01 0.00 0.00 0.00 0.01 0.01 0.01 0.01 0.00 0.00 0.00 0.00 0.00 0.00 0.00 0.00 0.00 0.00 0.00 0.00 0.00 0.00 0.00 0.00 0.00 0.00 0.00 0.00 0.00 0.00 0.00 0.00 0.00 0.00 0.00 0.00 0.00 0.00 0.00 0.00 0.00 0.00 0.00 0.00
0.01 0.01 0.00 0.00 0.00 0.00 0.01 0.00 0.00 0.00 0.00 0.00 0.00 0.00 0.00 0.00 0.00 0.00 0.00 0.00 0.00 0.00 0.00 0.00 0.00 0.00 0.00 0.00 0.00 0.00 0.00 0.00 0.00 0.00 0.00 0.00 0.00 0.00 0.00 0.00 0.00 0.00 0.00 0.00
0.01 0.01 0.01 0.00 0.00 0.00 0.00 0.00 0.00 0.00 0.00 0.00 0.00 0.00 0.00 0.00 0.00 0.00 0.00 0.00 0.00 0.00 0.00 0.00 0.00 0.00 0.00 0.00 0.00 0.00 0.00 0.00 0.00 0.00 0.00 0.00 0.00 0.00 0.00 0.00 0.00 0.00 0.00 0.00
0.01 0.01 0.01 0.00 0.00 0.00 0.00 0.00 0.00 0.00 0.00 0.00 0.00 0.00 0.00 0.00 0.00 0.00 0.00 0.00 0.00 0.00 0.00 0.00 0.00 0.00 0.00 0.00 0.00 0.00 0.00 0.00 0.00 0.00 0.00 0.00 0.00 0.00 0.00 0.00 0.00 0.00 0.00 0.00
0.01 0.01 0.01 0.00 0.01 0.01 0.00 0.00 0.00 0.00 0.00 0.00 0.00 0.00 0.00 0.00 0.00 0.00 0.00 0.00 0.00 0.00 0.00 0.00 0.00 0.00 0.00 0.00 0.00 0.00 0.00 0.00 0.00 0.00 0.00 0.00 0.00 0.00 0.00 0.00 0.00 0.00 0.00 0.00
0.01 0.01 0.00 0.00 0.00 0.00 0.00 0.00 0.00 0.00 0.00 0.00 0.00 0.00 0.00 0.00 0.00 0.00 0.00 0.00 0.00 0.00 0.00 0.00 0.00 0.00 0.00 0.00 0.00 0.00 0.00 0.00 0.00 0.00 0.00 0.00 0.00 0.00 0.00 0.00 0.00 0.00 0.00 0.00
0.00 0.00 0.00 0.00 0.00 0.00 0.00 0.00 0.00 0.00 0.00 0.00 0.00 0.00 0.00 0.00 0.00 0.00 0.00 0.00 0.00 0.00 0.00 0.00 0.00 0.00 0.00 0.00 0.00 0.00 0.00 0.00 0.00 0.00 0.00 0.00 0.00 0.00 0.00 0.00 0.00 0.00 0.00 0.00
0.00 0.00 0.00 0.00 0.00 0.00 0.00 0.00 0.00 0.00 0.00 0.00 0.00 0.00 0.00 0.00 0.00 0.00 0.00 0.00 0.00 0.00 0.00 0.00 0.00 0.00 0.00 0.00 0.00 0.00 0.00 0.00 0.00 0.00 0.00 0.00 0.00 0.00 0.00 0.00 0.00 0.00 0.00 0.00
0.00 0.00 0.00 0.00 0.00 0.00 0.00 0.00 0.00 0.00 0.00 0.00 0.00 0.00 0.00 0.00 0.00 0.00 0.00 0.00 0.00 0.00 0.00 0.00 0.00 0.00 0.00 0.00 0.00 0.00 0.00 0.00 0.00 0.00 0.00 0.00 0.00 0.00 0.00 0.00 0.00 0.00 0.00 0.00
0.00 0.00 0.00 0.00 0.00 0.00 0.00 0.00 0.00 0.00 0.00 0.00 0.00 0.00 0.00 0.00 0.00 0.00 0.00 0.00 0.00 0.00 0.00 0.00 0.00 0.00 0.00 0.00 0.00 0.00 0.00 0.00 0.00 0.00 0.00 0.00 0.00 0.00 0.00 0.00 0.00 0.00 0.00 0.00
0.00 0.00 0.00 0.00 0.00 0.00 0.00 0.00 0.00 0.00 0.00 0.00 0.00 0.00 0.00 0.00 0.00 0.00 0.00 0.00 0.00 0.00 0.00 0.00 0.00 0.00 0.00 0.00 0.00 0.00 0.00 0.00 0.00 0.00 0.00 0.00 0.00 0.00 0.00 0.00 0.00 0.00 0.00 0.00
0.00 0.00 0.00 0.00 0.00 0.00 0.00 0.00 0.00 0.00 0.00 0.00 0.00 0.00 0.00 0.00 0.00 0.00 0.00 0.00 0.00 0.00 0.00 0.00 0.00 0.00 0.00 0.00 0.00 0.00 0.00 0.00 0.00 0.00 0.00 0.00 0.00 0.00 0.00 0.00 0.00 0.00 0.00 0.00
0.00 0.00 0.00 0.00 0.00 0.00 0.00 0.00 0.00 0.00 0.00 0.00 0.00 0.00 0.00 0.00 0.00 0.00 0.00 0.00 0.00 0.00 0.00 0.00 0.00 0.00 0.00 0.00 0.00 0.00 0.00 0.00 0.00 0.00 0.00 0.00 0.00 0.00 0.00 0.00 0.00 0.00 0.00 0.00
0.00 0.00 0.00 0.00 0.00 0.00 0.00 0.00 0.00 0.00 0.00 0.00 0.00 0.00 0.00 0.00 0.00 0.00 0.00 0.00 0.00 0.00 0.00 0.00 0.00 0.00 0.00 0.00 0.00 0.00 0.00 0.00 0.00 0.00 0.00 0.00 0.00 0.00 0.00 0.00 0.00 0.00 0.00 0.00
0.00 0.00 0.00 0.00 0.00 0.00 0.00 0.00 0.00 0.00 0.00 0.00 0.00 0.00 0.00 0.00 0.00 0.00 0.00 0.00 0.00 0.00 0.00 0.00 0.00 0.00 0.00 0.00 0.00 0.00 0.00 0.00 0.00 0.00 0.00 0.00 0.00 0.00 0.00 0.00 0.00 0.00 0.00 0.00
0.00 0.00 0.00 0.00 0.00 0.00 0.00 0.00 0.00 0.00 0.00 0.00 0.00 0.00 0.00 0.00 0.00 0.00 0.00 0.00 0.00 0.00 0.00 0.00 0.00 0.00 0.00 0.00 0.00 0.00 0.00 0.00 0.00 0.00 0.00 0.00 0.00 0.00 0.00 0.00 0.00 0.00 0.00 0.00
0.00 0.00 0.00 0.00 0.00 0.00 0.00 0.00 0.00 0.00 0.00 0.00 0.00 0.00 0.00 0.00 0.00 0.00 0.00 0.00 0.00 0.00 0.00 0.00 0.00 0.00 0.00 0.00 0.00 0.00 0.00 0.00 0.00 0.00 0.00 0.00 0.00 0.00 0.00 0.00 0.00 0.00 0.00 0.00
0.00 0.00 0.00 0.00 0.00 0.00 0.00 0.00 0.00 0.00 0.00 0.00 0.00 0.00 0.00 0.00 0.00 0.00 0.00 0.00 0.00 0.00 0.00 0.00 0.00 0.00 0.00 0.00 0.00 0.00 0.00 0.00 0.00 0.00 0.00 0.00 0.00 0.00 0.00 0.00 0.00 0.00 0.00 0.00
0.00 0.00 0.00 0.00 0.00 0.00 0.00 0.00 0.00 0.00 0.00 0.00 0.00 0.00 0.00 0.00 0.00 0.00 0.00 0.00 0.00 0.00 0.00 0.00 0.00 0.00 0.00 0.00 0.00 0.00 0.00 0.00 0.00 0.00 0.00 0.00 0.00 0.00 0.00 0.00 0.00 0.00 0.00 0.00
0.00 0.00 0.00 0.00 0.00 0.00 0.00 0.00 0.00 0.00 0.00 0.00 0.00 0.00 0.00 0.00 0.00 0.00 0.00 0.00 0.00 0.00 0.00 0.00 0.00 0.00 0.00 0.00 0.00 0.00 0.00 0.00 0.00 0.00 0.00 0.00 0.00 0.00 0.00 0.00 0.00 0.00 0.00 0.00
0.00 0.00 0.00 0.00 0.00 0.00 0.00 0.00 0.00 0.00 0.00 0.00 0.00 0.00 0.00 0.00 0.00 0.00 0.00 0.00 0.00 0.00 0.00 0.00 0.00 0.00 0.00 0.00 0.00 0.00 0.00 0.00 0.00 0.00 0.00 0.00 0.00 0.00 0.00 0.00 0.00 0.00 0.00 0.00
0.00 0.00 0.00 0.00 0.00 0.00 0.00 0.00 0.00 0.00 0.00 0.00 0.00 0.00 0.00 0.00 0.00 0.00 0.00 0.00 0.00 0.00 0.00 0.00 0.00 0.00 0.00 0.00 0.00 0.00 0.00 0.00 0.00 0.00 0.00 0.00 0.00 0.00 0.00 0.00 0.00 0.00 0.00 0.00
0.00 0.00 0.00 0.00 0.00 0.00 0.00 0.00 0.00 0.00 0.00 0.00 0.00 0.00 0.00 0.00 0.00 0.00 0.00 0.00 0.00 0.00 0.00 0.00 0.00 0.00 0.00 0.00 0.00 0.00 0.00 0.00 0.00 0.00 0.00 0.00 0.00 0.00 0.00 0.00 0.00 0.00 0.00 0.00
0.00 0.00 0.00 0.00 0.00 0.00 0.00 0.00 0.00 0.00 0.00 0.00 0.00 0.00 0.00 0.00 0.00 0.00 0.00 0.00 0.00 0.00 0.00 0.00 0.00 0.00 0.00 0.00 0.00 0.00 0.00 0.00 0.00 0.00 0.00 0.00 0.00 0.00 0.00 0.00 0.00 0.00 0.00 0.00
0.00 0.00 0.00 0.00 0.00 0.00 0.00 0.00 0.01 0.01 0.01 0.01 0.01 0.00 0.00 0.00 0.00 0.00 0.00 0.00 0.00 0.00 0.00 0.00 0.00 0.00 0.00 0.00 0.00 0.00 0.00 0.00 0.00 0.00 0.00 0.00 0.00 0.00 0.00 0.00 0.00 0.00 0.00 0.00
0.00 0.00 0.00 0.00 0.00 0.00 0.00 0.00 0.00 0.00 0.00 0.01 0.01 0.01 0.01 0.00 0.00 0.00 0.00 0.00 0.00 0.00 0.00 0.00 0.00 0.00 0.00 0.00 0.00 0.00 0.00 0.00 0.00 0.00 0.00 0.00 0.00 0.00 0.00 0.00 0.00 0.00 0.01 0.01
0.00 0.00 0.00 0.00 0.00 0.00 0.00 0.00 0.00 0.00 0.00 0.00 0.00 0.00 0.00 0.00 0.00 0.00 0.00 0.00 0.00 0.00 0.00 0.00 0.00 0.00 0.00 0.00 0.00 0.00 0.00 0.00 0.00 0.00 0.00 0.00 0.00 0.00 0.00 0.00 0.00 0.00 0.00 0.00
MSLP
1013.03 1013.19 1013.31 1013.38 1013.38 1013.29 1013.09 1012.79 1012.39 1011.92 1011.43 1010.96 1010.57 1010.32 1010.23 1010.32 1010.58 1011.00 1011.52 1012.11 1012.72 1013.31 1013.85 1014.33 1014.75 1015.10 1015.41 1015.67 1015.89 1016.10 1016.28 1016.44 1016.59 1016.74 1016.90 1017.07 1017.28 1017.51 1017.77 1018.05 1018.34 1018.62 1018.85 1019.04
1012.84 1012.91 1012.92 1012.85 1012.71 1012.49 1012.21 1011.86 1011.47 1011.05 1010.63 1010.25 1009.95 1009.75 1009.68 1009.75 1009.97 1010.32 1010.78 1011.32 1011.91 1012.53 1013.14 1013.72 1014.27 1014.77 1015.22 1015.60 1015.92 1016.19 1016.40 1016.57 1016.70 1016.83 1016.97 1017.13 1017.32 1017.56 1017.84 1018.14 1018.45 1018.74 1018.99 1019.18
1012.73 1012.73 1012.62 1012.43 1012.16 1011.82 1011.45 1011.04 1010.63 1010.22 1009.84 1009.51 1009.25 1009.08 1009.03 1009.09 1009.27 1009.58 1009.99 1010.51 1011.10 1011.75 1012.43 1013.12 1013.79 1014.43 1015.00 1015.50 1015.92 1016.25 1016.50 1016.69 1016.83 1016.95 1017.08 1017.23 1017.43 1017.68 1017.96 1018.27 1018.58 1018.87 1019.12 1019.30
1012.64 1012.57 1012.38 1012.08 1011.69 1011.25 1010.78 1010.31 1009.86 1009.44 1009.07 1008.76 1008.53 1008.39 1008.34 1008.40 1008.57 1008.86 1009.25 1009.76 1010.37 1011.05 1011.79 1012.56 1013.33 1014.07 1014.75 1015.35 1015.85 1016.24 1016.55 1016.77 1016.94 1017.08 1017.21 1017.38 1017.58 1017.83 1018.11 1018.41 1018.72 1019.00 1019.23 1019.40
1012.51 1012.37 1012.10 1011.71 1011.24 1010.72 1010.18 1009.66 1009.17 1008.74 1008.38 1008.09 1007.88 1007.76 1007.73 1007.80 1007.97 1008.25 1008.64 1009.15 1009.76 1010.47 1011.24 1012.06 1012.89 1013.70 1014.45 1015.11 1015.68 1016.14 1016.50 1016.78 1016.99 1017.17 1017.34 1017.53 1017.75 1018.00 1018.28 1018.57 1018.86 1019.11 1019.32 1019.47
1012.25 1012.06 1011.72 1011.28 1010.75 1010.18 1009.61 1009.06 1008.56 1008.14 1007.79 1007.52 1007.34 1007.25 1007.25 1007.34 1007.53 1007.81 1008.21 1008.72 1009.33 1010.03 1010.81 1011.64 1012.49 1013.32 1014.10 1014.81 1015.43 1015.95 1016.37 1016.71 1016.99 1017.22 1017.45 1017.67 1017.92 1018.18 1018.45 1018.73 1018.99 1019.22 1019.40 1019.53
1011.83 1011.58 1011.21 1010.73 1010.19 1009.62 1009.04 1008.51 1008.03 1007.63 1007.32 1007.09 1006.96 1006.91 1006.95 1007.07 1007.28 1007.58 1007.98 1008.47 1009.07 1009.75 1010.51 1011.31 1012.14 1012.96 1013.75 1014.47 1015.12 1015.69 1016.17 1016.58 1016.93 1017.24 1017.52 1017.80 1018.07 1018.35 1018.62 1018.87 1019.11 1019.31 1019.47 1019.59
1011.24 1010.95 1010.55 1010.08 1009.56 1009.02 1008.49 1008.01 1007.59 1007.24 1006.99 1006.82 1006.74 1006.74 1006.82 1006.97 1007.20 1007.52 1007.91 1008.39 1008.96 1009.60 1010.31 1011.06 1011.85 1012.63 1013.40 1014.12 1014.79 1015.40 1015.93 1016.41 1016.83 1017.21 1017.56 1017.88 1018.19 1018.48 1018.75 1018.99 1019.20 1019.38 1019.52 1019.64
1010.53 1010.21 1009.82 1009.37 1008.90 1008.43 1007.98 1007.58 1007.24 1006.97 1006.78 1006.67 1006.65 1006.70 1006.81 1007.00 1007.25 1007.57 1007.96 1008.42 1008.95 1009.54 1010.20 1010.89 1011.62 1012.36 1013.09 1013.80 1014.47 1015.11 1015.69 1016.22 1016.70 1017.14 1017.55 1017.91 1018.25 1018.55 1018.81 1019.04 1019.24 1019.40 1019.54 1019.66
1009.77 1009.43 1009.07 1008.68 1008.28 1007.90 1007.55 1007.24 1006.99 1006.80 1006.68 1006.63 1006.65 1006.73 1006.88 1007.08 1007.35 1007.67 1008.05 1008.49 1008.98 1009.53 1010.13 1010.77 1011.44 1012.13 1012.83 1013.52 1014.19 1014.83 1015.44 1016.01 1016.54 1017.02 1017.46 1017.85 1018.20 1018.51 1018.77 1018.99 1019.18 1019.34 1019.49 1019.62
1009.03 1008.71 1008.39 1008.07 1007.76 1007.48 1007.23 1007.01 1006.84 1006.72 1006.65 1006.64 1006.68 1006.78 1006.94 1007.15 1007.42 1007.74 1008.11 1008.53 1009.00 1009.51 1010.07 1010.67 1011.30 1011.94 1012.60 1013.26 1013.91 1014.55 1015.17 1015.75 1016.30 1016.80 1017.25 1017.66 1018.01 1018.32 1018.58 1018.80 1018.99 1019.15 1019.31 1019.46
1008.37 1008.08 1007.82 1007.59 1007.38 1007.19 1007.02 1006.88 1006.77 1006.69 1006.65 1006.66 1006.70 1006.80 1006.95 1007.16 1007.42 1007.73 1008.09 1008.50 1008.96 1009.45 1009.99 1010.55 1011.14 1011.75 1012.37 1013.00 1013.63 1014.24 1014.84 1015.41 1015.94 1016.44 1016.89 1017.28 1017.63 1017.93 1018.19 1018.41 1018.60 1018.79 1018.96 1019.14
1007.80 1007.57 1007.39 1007.23 1007.10 1006.99 1006.90 1006.81 1006.74 1006.68 1006.64 1006.64 1006.67 1006.75 1006.88 1007.07 1007.32 1007.62 1007.98 1008.39 1008.84 1009.33 1009.85 1010.39 1010.95 1011.53 1012.11 1012.70 1013.28 1013.86 1014.41 1014.95 1015.45 1015.91 1016.33 1016.71 1017.04 1017.34 1017.59 1017.82 1018.03 1018.23 1018.43 1018.63
1007.30 1007.15 1007.03 1006.95 1006.89 1006.85 1006.80 1006.74 1006.68 1006.63 1006.58 1006.55 1006.56 1006.62 1006.73 1006.90 1007.14 1007.44 1007.80 1008.21 1008.66 1009.15 1009.66 1010.18 1010.72 1011.26 1011.80 1012.33 1012.86 1013.37 1013.87 1014.35 1014.80 1015.22 1015.61 1015.96 1016.27 1016.56 1016.81 1017.05 1017.28 1017.50 1017.72 1017.94
1006.84 1006.75 1006.71 1006.69 1006.68 1006.67 1006.65 1006.61 1006.56 1006.50 1006.44 1006.39 1006.39 1006.43 1006.53 1006.69 1006.93 1007.23 1007.59 1008.01 1008.46 1008.94 1009.44 1009.94 1010.44 1010.94 1011.42 1011.89 1012.35 1012.80 1013.23 1013.64 1014.03 1014.40 1014.75 1015.07 1015.37 1015.65 1015.91 1016.16 1016.40 1016.64 1016.87 1017.10
1006.39 1006.36 1006.36 1006.37 1006.39 1006.41 1006.40 1006.37 1006.32 1006.27 1006.21 1006.17 1006.16 1006.21 1006.31 1006.49 1006.73 1007.05 1007.42 1007.84 1008.29 1008.76 1009.23 1009.70 1010.16 1010.60 1011.02 1011.43 1011.81 1012.18 1012.54 1012.89 1013.22 1013.54 1013.85 1014.15 1014.43 1014.70 1014.97 1015.22 1015.47 1015.71 1015.94 1016.16
1005.96 1005.95 1005.96 1005.99 1006.02 1006.04 1006.04 1006.02 1005.99 1005.95 1005.92 1005.91 1005.93 1006.01 1006.15 1006.36 1006.63 1006.96 1007.34 1007.76 1008.20 1008.65 1009.09 1009.52 1009.92 1010.30 1010.66 1010.99 1011.31 1011.61 1011.90 1012.18 1012.47 1012.74 1013.02 1013.29 1013.55 1013.81 1014.07 1014.32 1014.56 1014.79 1015.01 1015.20
1005.59 1005.56 1005.55 1005.56 1005.58 1005.60 1005.60 1005.61 1005.60 1005.61 1005.62 1005.67 1005.76 1005.90 1006.09 1006.34 1006.65 1007.01 1007.40 1007.82 1008.24 1008.66 1009.07 1009.44 1009.79 1010.11 1010.40 1010.66 1010.92 1011.16 1011.39 1011.62 1011.86 1012.10 1012.34 1012.58 1012.83 1013.07 1013.30 1013.53 1013.75 1013.94 1014.12 1014.28
1005.36 1005.28 1005.22 1005.19 1005.17 1005.18 1005.19 1005.21 1005.26 1005.32 1005.41 1005.53 1005.70 1005.92 1006.18 1006.49 1006.84 1007.23 1007.63 1008.04 1008.45 1008.83 1009.19 1009.52 1009.81 1010.07 1010.30 1010.52 1010.71 1010.91 1011.09 1011.29 1011.48 1011.69 1011.90 1012.10 1012.31 1012.52 1012.72 1012.90 1013.07 1013.22 1013.34 1013.44
1005.36 1005.19 1005.06 1004.97 1004.92 1004.90 1004.92 1004.97 1005.06 1005.18 1005.35 1005.56 1005.81 1006.11 1006.45 1006.81 1007.20 1007.61 1008.02 1008.42 1008.80 1009.15 1009.47 1009.75 1009.99 1010.21 1010.40 1010.57 1010.73 1010.89 1011.04 1011.20 1011.36 1011.52 1011.69 1011.85 1012.01 1012.17 1012.31 1012.43 1012.54 1012.62 1012.68 1012.71
1005.64 1005.39 1005.18 1005.03 1004.93 1004.89 1004.90 1004.98 1005.11 1005.29 1005.53 1005.81 1006.14 1006.50 1006.89 1007.29 1007.71 1008.13 1008.53 1008.91 1009.26 1009.58 1009.87 1010.11 1010.32 1010.51 1010.67 1010.81 1010.94 1011.07 1011.19 1011.32 1011.44 1011.56 1011.67 1011.78 1011.88 1011.97 1012.04 1012.09 1012.12 1012.14 1012.13 1012.10
1006.23 1005.89 1005.62 1005.40 1005.26 1005.20 1005.21 1005.30 1005.46 1005.68 1005.97 1006.30 1006.67 1007.07 1007.48 1007.90 1008.32 1008.73 1009.12 1009.47 1009.79 1010.08 1010.34 1010.56 1010.75 1010.91 1011.05 1011.18 1011.29 1011.39 1011.49 1011.57 1011.65 1011.72 1011.78 1011.82 1011.85 1011.86 1011.85 1011.83 1011.80 1011.74 1011.68 1011.60
1007.06 1006.67 1006.35 1006.10 1005.93 1005.86 1005.86 1005.96 1006.12 1006.36 1006.66 1007.00 1007.38 1007.78 1008.18 1008.59 1008.99 1009.36 1009.71 1010.04 1010.33 1010.59 1010.82 1011.02 1011.19 1011.34 1011.47 1011.59 1011.68 1011.76 1011.82 1011.87 1011.89 1011.90 1011.90 1011.87 1011.83 1011.77 1011.70 1011.61 1011.52 1011.42 1011.32 1011.21
1008.03 1007.64 1007.30 1007.04 1006.87 1006.78 1006.79 1006.87 1007.03 1007.26 1007.54 1007.86 1008.21 1008.57 1008.93 1009.29 1009.64 1009.97 1010.27 1010.55 1010.81 1011.04 1011.25 1011.43 1011.59 1011.73 1011.85 1011.95 1012.02 1012.07 1012.09 1012.10 1012.07 1012.02 1011.95 1011.86 1011.76 1011.65 1011.53 1011.40 1011.28 1011.15 1011.03 1010.92
1009.01 1008.64 1008.34 1008.10 1007.94 1007.86 1007.87 1007.94 1008.08 1008.28 1008.51 1008.78 1009.07 1009.37 1009.67 1009.96 1010.24 1010.50 1010.75 1010.98 1011.20 1011.39 1011.58 1011.74 1011.89 1012.01 1012.12 1012.19 1012.24 1012.26 1012.24 1012.20 1012.12 1012.02 1011.90 1011.77 1011.62 1011.47 1011.33 1011.19 1011.06 1010.93 1010.82 1010.72
1009.85 1009.56 1009.31 1009.12 1009.00 1008.94 1008.95 1009.01 1009.13 1009.28 1009.46 1009.67 1009.88 1010.10 1010.32 1010.53 1010.73 1010.92 1011.11 1011.29 1011.46 1011.63 1011.78 1011.92 1012.05 1012.15 1012.23 1012.28 1012.30 1012.28 1012.23 1012.14 1012.03 1011.89 1011.74 1011.58 1011.42 1011.26 1011.12 1010.99 1010.87 1010.77 1010.68 1010.60
1010.47 1010.26 1010.10 1009.97 1009.90 1009.87 1009.89 1009.95 1010.04 1010.15 1010.28 1010.42 1010.56 1010.70 1010.83 1010.97 1011.10 1011.23 1011.36 1011.49 1011.61 1011.74 1011.86 1011.97 1012.07 1012.15 1012.20 1012.22 1012.20 1012.15 1012.07 1011.95 1011.82 1011.66 1011.50 1011.34 1011.19 1011.05 1010.92 1010.82 1010.74 1010.67 1010.60 1010.54
Thickness
5708 5710 5709 5708 5707 5706 5707 5715 5715 5726 5731 5743 5750 5750 5750 5749 5747 5744 5742 5740 5739 5737 5736 5734 5732 5732 5731 5727 5724 5722 5720 5718 5716 5715 5713 5711 5709 5707 5706 5705 5704 5702 5701 5700
5703 5708 5707 5706 5712 5713 5712 5719 5723 5726 5733 5754 5758 5756 5752 5750 5747 5744 5743 5742 5741 5739 5737 5735 5732 5731 5728 5725 5722 5721 5718 5716 5713 5712 5710 5708 5707 5705 5703 5701 5700 5698 5697 5694
5700 5704 5701 5701 5719 5719 5719 5726 5728 5726 5740 5752 5750 5750 5753 5753 5750 5750 5749 5746 5743 5742 5740 5739 5736 5733 5729 5726 5722 5720 5717 5714 5711 5709 5706 5705 5703 5700 5698 5696 5694 5692 5690 5688
5699 5696 5685 5720 5735 5731 5727 5731 5737 5740 5749 5751 5752 5754 5756 5758 5755 5754 5753 5749 5746 5744 5741 5740 5737 5733 5730 5725 5722 5719 5716 5712 5709 5706 5703 5701 5698 5696 5694 5693 5690 5687 5685 5683
5696 5691 5700 5720 5729 5728 5723 5728 5743 5742 5747 5750 5752 5750 5754 5760 5760 5759 5757 5754 5751 5748 5744 5740 5736 5733 5728 5724 5721 5717 5714 5710 5707 5704 5700 5698 5695 5693 5692 5689 5686 5684 5680 5678
5692 5686 5689 5716 5730 5734 5728 5723 5746 5747 5747 5748 5744 5742 5754 5762 5759 5758 5756 5753 5750 5746 5742 5738 5734 5731 5727 5723 5719 5716 5712 5709 5705 5702 5698 5695 5692 5690 5687 5684 5681 5678 5675 5673
5691 5691 5706 5727 5727 5726 5712 5724 5744 5748 5749 5749 5747 5756 5762 5761 5758 5756 5753 5750 5747 5742 5739 5735 5732 5728 5724 5722 5718 5715 5710 5706 5701 5698 5695 5692 5688 5685 5682 5679 5676 5674 5671 5668
5693 5688 5700 5723 5722 5721 5729 5741 5742 5745 5748 5749 5752 5755 5756 5755 5753 5751 5748 5745 5742 5738 5734 5731 5728 5725 5723 5720 5716 5710 5705 5700 5697 5693 5690 5687 5682 5679 5677 5673 5670 5667 5666 5663
5704 5708 5718 5721 5725 5730 5731 5734 5739 5742 5744 5745 5746 5747 5748 5748 5747 5745 5743 5740 5737 5734 5730 5727 5724 5723 5720 5716 5711 5705 5700 5695 5692 5688 5685 5682 5678 5674 5671 5668 5666 5664 5661 5658
5700 5711 5716 5717 5721 5724 5727 5729 5734 5737 5739 5741 5741 5743 5743 5743 5741 5739 5738 5736 5733 5729 5725 5722 5720 5718 5716 5711 5705 5701 5696 5692 5688 5685 5680 5677 5673 5670 5667 5664 5661 5658 5655 5652
5696 5706 5711 5714 5716 5720 5723 5728 5730 5732 5735 5736 5737 5737 5738 5737 5736 5735 5733 5731 5728 5726 5723 5720 5716 5712 5710 5706 5701 5696 5692 5687 5683 5680 5676 5672 5668 5664 5662 5659 5656 5651 5649 5645
5693 5704 5705 5709 5714 5715 5717 5720 5724 5726 5728 5730 5731 5731 5732 5731 5730 5729 5727 5726 5723 5721 5718 5715 5711 5707 5704 5700 5696 5692 5687 5683 5678 5674 5670 5666 5662 5657 5651 5648 5644 5640 5636 5634
5695 5697 5699 5702 5705 5708 5710 5714 5717 5719 5721 5722 5723 5724 5724 5723 5722 5722 5720 5719 5717 5715 5713 5710 5705 5701 5698 5694 5690 5687 5682 5678 5673 5668 5664 5660 5656 5652 5647 5640 5634 5630 5627 5623
5683 5685 5688 5693 5696 5699 5703 5705 5709 5711 5713 5714 5715 5715 5715 5715 5714 5713 5713 5712 5710 5708 5705 5703 5699 5695 5692 5687 5683 5679 5676 5670 5665 5661 5657 5653 5650 5646 5642 5637 5632 5627 5621 5615
5674 5677 5681 5684 5687 5690 5693 5696 5697 5700 5702 5703 5704 5705 5705 5705 5704 5704 5704 5704 5701 5698 5696 5694 5690 5687 5684 5680 5675 5672 5668 5663 5658 5654 5650 5646 5642 5637 5633 5629 5626 5622 5617 5611
5664 5667 5670 5673 5676 5680 5683 5685 5687 5689 5691 5693 5694 5695 5695 5696 5695 5695 5694 5693 5690 5688 5687 5685 5682 5679 5675 5671 5667 5663 5659 5653 5649 5645 5641 5637 5632 5629 5625 5621 5617 5614 5609 5605
5653 5656 5659 5662 5666 5670 5673 5675 5678 5680 5682 5683 5683 5685 5685 5684 5683 5683 5682 5682 5681 5680 5678 5676 5673 5670 5666 5662 5658 5654 5650 5644 5637 5635 5632 5629 5624 5620 5616 5612 5608 5605 5601 5597
5643 5648 5651 5654 5657 5659 5662 5665 5667 5669 5671 5673 5673 5673 5673 5673 5673 5673 5672 5671 5669 5668 5667 5665 5663 5659 5656 5652 5648 5645 5641 5637 5631 5627 5623 5619 5615 5611 5607 5603 5599 5595 5591 5586
5630 5633 5638 5641 5645 5648 5650 5653 5655 5658 5659 5660 5661 5661 5662 5662 5663 5662 5661 5659 5658 5656 5655 5653 5649 5647 5645 5641 5636 5633 5630 5627 5622 5618 5614 5608 5604 5601 5598 5594 5590 5586 5581 5576
5616 5620 5624 5627 5630 5633 5637 5640 5642 5644 5646 5647 5648 5648 5648 5649 5649 5648 5647 5646 5645 5645 5644 5641 5638 5636 5633 5629 5623 5621 5618 5615 5611 5608 5603 5600 5595 5591 5588 5583 5579 5575 5570 5566
5603 5606 5609 5612 5615 5619 5622 5625 5628 5629 5631 5632 5633 5634 5634 5634 5634 5633 5632 5631 5631 5629 5628 5625 5624 5622 5619 5616 5609 5609 5606 5603 5599 5596 5592 5588 5584 5581 5577 5573 5568 5563 5559 5555
5591 5594 5596 5598 5601 5604 5607 5610 5612 5614 5615 5616 5617 5618 5618 5618 5618 5618 5618 5617 5616 5612 5612 5611 5610 5607 5604 5600 5598 5596 5593 5590 5587 5583 5580 5576 5572 5568 5565 5560 5556 5551 5547 5542
5577 5580 5583 5585 5588 5590 5592 5594 5595 5597 5598 5599 5600 5601 5601 5601 5602 5602 5601 5601 5599 5597 5596 5596 5594 5590 5587 5585 5585 5583 5580 5577 5574 5571 5567 5563 5559 5555 5551 5547 5543 5538 5533 5529
5563 5566 5568 5571 5573 5574 5576 5577 5578 5580 5581 5582 5583 5583 5584 5584 5585 5586 5585 5583 5582 5580 5581 5580 5576 5574 5571 5571 5570 5569 5567 5564 5561 5557 5554 5550 5545 5541 5537 5533 5528 5523 5519 5514
5547 5550 5553 5555 5557 5558 5560 5561 5562 5562 5563 5564 5566 5566 5567 5567 5568 5568 5567 5567 5566 5565 5565 5564 5561 5559 5557 5557 5556 5554 5552 5549 5546 5543 5539 5535 5531 5527 5523 5518 5514 5509 5504 5499
5531 5534 5536 5539 5540 5541 5543 5545 5546 5546 5547 5548 5548 5548 5548 5549 5549 5549 5549 5550 5550 5548 5548 5548 5547 5544 5544 5542 5540 5538 5536 5533 5530 5526 5523 5520 5516 5512 5508 5504 5499 5494 5489 5485
5515 5517 5519 5522 5523 5525 5526 5527 5528 5529 5530 5530 5530 5530 5530 5531 5531 5532 5532 5532 5532 5532 5531 5531 5530 5528 5527 5525 5524 5522 5519 5516 5514 5511 5507 5504 5500 5497 5492 5488 5483 5478 5474 5469